Location: Izdebno
(52.6670°N, 16.2170°E)
Time: 03:20:42
(UTC+02:00)

Transit 4A - Pass Details

Date: 02 March 2024
Orbit: 871 x 972 km, 66.8° (Epoch: 22 April)

Event Time Altitude Azimuth Distance (km) Brightness Sun altitude
Exits shadow 05:53:30 - 313° (NW) 3,544 10.5 -7.7°
Rises 05:53:33 0° 313° (NW) 3,529 10.5 -7.6°
Reaches altitude 10° 05:56:29 10° 325° (NW) 2,572 9.9 -7.2°
Maximum altitude 06:01:29 27° 23° (NNE) 1,628 9.4 -6.4°
Drops below altitude 10° 06:06:25 10° 80° (E) 2,530 11.8 -5.7°
Sets 06:09:17 0° 93° (E) 3,462 13.9 -5.3°
